Find Starlink 32533

NORAD ID: 61706 Int'l Des: 2024-195 Owner: SPXS Country: US Constellation: starlink operational
LEOCIRCULAR

Current View

Loading 3D Globe...

About Starlink 32533

Starlink 32533 (NORAD 61706) is a starlink constellation satellite (v2 mini) launched Oct 30, 2024 by SPXS of US. It operates in LEO, CIRCULAR orbit with a mass of 730.00 kg.

About Starlink 32533

Description loading...

Upcoming Passes

Passes for default location (London). Set your location on the main map for personalized predictions.

Altitude History

Loading altitude history...

Two-Line Element Set

1 61706U 24195V 26167.41294425 .00000618 00000-0 29437-4 0 9998
2 61706 53.1598 54.8720 0001180 78.0452 282.0683 15.34386704 92321
Epoch: Jun 16, 2026 • Age: 11 hours

Current Status

Altitude 470.1 km
Velocity 7.63 km/s
Sub-Earth Point -24.57°S, 176.94°E
Launch Date Oct 30, 2024
Age 1.6 years
Type internet

Technical Details

Classification Payload
Mass 730.00 kg
Dry Mass 700.00 kg
Total Mass 730.00 kg
Length 0.30 m
Diameter 4.10 m
Span 29.00 m
Shape Box + pan
Manufacturer SPXS
Bus Type Starlink V2M
Phase Status In Orbit
Owner/State SPXS/US

Most Searched